Total_Precipitation_Accumulation
1.34 1.46 1.82 1.70 1.59 1.66 1.75 1.74 1.81 1.91 2.07 2.30 2.47 2.69 2.84 3.15 3.25 3.32 3.39 3.81 4.20 4.33 4.48 4.66 4.30 3.87 3.61 3.51 3.27 2.81 2.43 2.24 2.13 2.06 2.02 2.02 2.09 2.28 2.58 2.72 2.56 1.94 1.91
0.95 1.16 1.62 1.62 1.56 1.56 1.50 1.54 1.71 1.89 2.02 2.16 2.40 2.71 2.78 3.10 3.25 3.17 3.42 3.92 4.29 4.28 4.19 4.10 3.79 3.46 3.28 3.09 2.67 2.19 2.04 2.13 2.39 2.47 2.42 2.17 2.26 2.51 2.63 2.48 2.59 1.96 1.81
0.78 1.01 1.35 1.53 1.55 1.50 1.33 1.47 1.68 1.77 1.91 2.09 2.33 2.66 2.73 2.97 3.08 3.17 3.51 3.84 3.99 3.95 3.81 3.67 3.46 3.15 2.84 2.40 1.98 1.81 1.88 2.16 2.63 2.93 2.87 2.13 1.85 2.28 2.36 2.20 2.05 1.83 1.73
0.86 1.03 1.23 1.34 1.40 1.38 1.27 1.42 1.66 1.77 1.90 2.05 2.23 2.47 2.58 2.73 2.93 3.23 3.49 3.50 3.54 3.53 3.48 3.28 2.94 2.64 2.31 1.92 1.75 1.74 1.90 2.16 2.64 3.07 2.90 2.00 1.50 1.76 1.87 1.80 1.86 1.64 1.55
0.85 1.00 1.23 1.23 1.27 1.30 1.31 1.54 1.74 1.82 1.94 2.02 2.19 2.40 2.51 2.60 2.77 3.14 3.37 3.23 3.22 3.13 2.90 2.67 2.52 2.28 1.96 1.74 1.63 1.66 1.89 2.30 2.71 2.60 2.03 1.97 1.86 1.81 1.65 1.65 1.68 1.46 1.32
0.79 0.90 1.19 1.19 1.09 1.17 1.44 1.63 1.65 1.75 1.88 1.98 2.16 2.33 2.46 2.48 2.63 2.89 2.88 2.81 2.78 2.68 2.51 2.44 2.26 2.04 1.76 1.54 1.51 1.65 1.93 2.25 2.15 1.51 1.38 1.49 1.51 1.63 1.61 1.83 1.69 1.44 1.31
0.87 0.90 1.05 1.13 1.03 1.13 1.28 1.43 1.49 1.57 1.79 1.96 2.19 2.35 2.41 2.43 2.52 2.52 2.43 2.42 2.46 2.34 2.18 2.09 1.98 1.80 1.64 1.52 1.48 1.50 1.71 2.08 1.56 1.09 1.24 1.55 1.39 1.32 1.42 1.86 1.80 1.52 1.34
0.80 0.76 0.87 1.09 1.07 1.11 1.23 1.39 1.52 1.53 1.69 1.89 2.00 2.16 2.17 2.06 2.05 2.08 2.19 2.29 2.22 2.03 1.88 1.76 1.64 1.58 1.54 1.49 1.44 1.47 1.65 1.68 1.09 1.04 1.16 1.29 1.14 1.18 1.32 1.69 1.84 1.87 1.81
0.75 0.75 0.83 0.92 0.91 1.07 1.38 1.60 1.68 1.67 1.75 1.79 1.80 1.99 2.02 1.95 1.90 1.90 1.97 2.05 1.92 1.75 1.62 1.56 1.42 1.29 1.18 1.24 1.24 1.36 1.64 1.67 1.25 1.18 1.07 1.05 0.92 1.03 1.30 1.54 1.72 1.91 1.98
0.93 0.90 0.94 0.96 0.88 0.90 1.19 1.60 1.86 1.91 1.87 1.83 1.94 2.06 2.10 2.09 2.00 1.95 1.70 1.73 1.76 1.63 1.59 1.57 1.48 1.25 1.16 1.23 1.29 1.44 1.66 1.41 1.30 1.19 1.25 1.16 1.03 1.17 1.43 1.55 1.54 1.55 1.50
1.26 1.18 1.14 1.00 0.94 0.97 1.09 1.36 1.66 1.94 2.14 2.21 2.26 2.23 2.30 2.33 2.23 2.28 1.96 2.07 2.00 1.84 1.81 1.84 1.70 1.44 1.29 1.28 1.53 1.82 1.56 1.25 1.41 1.40 1.39 1.30 1.25 1.49 1.75 1.74 1.65 1.56 1.43
1.56 1.27 1.23 1.12 1.09 1.07 0.99 1.19 1.49 1.60 1.90 2.17 2.29 2.30 2.53 2.69 2.73 2.31 2.60 2.73 2.55 2.46 2.32 2.31 2.35 1.99 1.57 1.52 2.09 2.38 1.47 1.23 1.24 1.30 1.35 1.35 1.61 1.88 2.08 1.92 1.78 1.74 1.65
1.51 1.54 1.54 1.41 1.39 1.36 1.43 1.29 1.47 1.72 1.97 2.04 2.05 2.29 2.68 2.62 2.57 2.44 2.62 3.02 3.06 3.02 2.90 2.89 2.87 2.38 2.20 2.38 2.54 2.25 1.68 1.56 1.56 1.57 1.65 1.81 2.11 2.39 2.42 2.14 1.99 1.94 1.90
1.82 2.07 2.20 1.93 1.94 1.83 1.64 1.52 1.52 1.67 1.92 2.13 2.40 2.52 2.65 2.92 2.96 2.78 2.79 2.94 3.05 3.15 3.55 3.40 3.24 2.93 2.80 2.62 2.51 2.24 2.02 2.00 2.03 2.21 2.43 2.15 2.22 2.56 2.71 2.51 2.36 2.25 2.18
2.51 2.78 2.97 2.55 2.47 2.35 2.36 2.26 1.97 2.08 2.22 2.44 2.69 2.88 2.91 3.18 3.35 3.31 3.14 3.02 2.80 2.85 3.20 3.45 3.31 3.31 3.17 2.95 2.63 2.41 2.30 2.21 2.14 2.34 2.50 2.58 2.55 2.59 2.85 3.02 2.88 2.65 2.52
3.01 3.19 3.34 3.23 3.27 3.12 2.90 2.94 2.89 2.53 2.64 2.69 2.81 2.91 3.06 3.31 3.74 3.84 3.63 3.45 3.04 2.89 2.95 3.26 3.32 3.57 3.48 3.25 2.62 2.48 2.44 2.41 2.44 2.41 2.56 3.07 3.12 2.72 2.77 3.12 3.34 3.36 3.17
3.84 3.79 3.84 3.82 4.12 4.04 3.65 3.32 3.02 2.83 2.81 3.04 3.11 3.19 3.26 3.51 3.91 3.89 3.65 3.25 2.92 2.87 3.09 3.12 3.12 3.40 3.25 3.12 2.99 2.94 2.87 2.74 2.61 2.57 2.65 3.17 3.17 2.79 2.66 2.77 3.16 3.49 3.58
4.67 4.61 4.41 4.01 4.43 4.49 4.22 4.02 3.62 3.34 3.41 3.43 3.16 3.30 3.23 3.39 3.34 3.43 3.15 2.80 2.83 2.99 3.14 3.34 3.24 3.33 3.34 3.41 3.49 3.41 3.18 3.01 2.60 2.39 2.29 2.44 2.72 2.45 2.63 2.88 3.03 3.17 3.57
5.11 5.34 5.32 5.24 5.02 4.80 4.61 4.47 4.28 4.11 3.83 3.47 3.32 3.42 3.12 2.80 2.62 2.83 2.84 2.80 2.71 2.86 2.94 2.74 3.15 3.42 3.45 3.47 3.21 3.28 2.88 2.76 2.53 2.21 2.15 2.13 2.30 2.45 2.53 2.60 2.82 2.89 3.35
5.04 5.64 5.85 5.95 5.67 5.22 4.74 4.38 4.31 4.08 3.84 3.57 3.34 3.34 2.92 2.69 2.46 2.76 2.77 2.74 2.71 2.85 2.95 3.06 3.35 3.49 3.19 3.14 2.83 2.77 2.51 2.16 2.17 2.14 1.97 2.06 2.19 2.11 2.29 2.47 2.82 2.63 3.08
4.59 5.32 5.49 5.86 5.46 4.84 4.29 3.88 3.78 3.63 3.33 3.20 3.08 3.04 2.96 2.71 2.64 2.90 2.80 2.91 2.73 2.76 2.73 2.81 3.09 3.22 2.86 2.92 3.38 3.01 2.40 1.99 2.03 1.93 1.97 2.06 2.05 2.08 2.30 2.63 2.89 2.99 2.97
3.95 4.69 4.78 4.52 4.37 3.96 3.62 3.48 3.32 3.30 2.96 2.79 2.67 2.81 2.62 2.47 2.59 2.63 2.79 2.65 2.58 2.73 2.72 2.76 3.01 2.97 2.66 2.84 3.32 3.49 2.98 2.61 2.27 1.85 1.89 1.94 2.00 2.22 2.29 2.32 2.79 3.15 3.11
3.59 3.70 3.37 3.25 3.36 3.32 3.18 3.11 3.01 3.04 2.85 2.63 2.50 2.59 2.43 2.25 2.33 2.41 2.37 2.42 2.54 2.29 2.50 2.73 2.86 2.92 2.84 2.74 2.94 3.43 3.25 2.92 2.55 2.14 1.99 2.09 2.26 2.41 2.46 2.59 2.66 2.92 3.15
2.74 2.67 2.65 2.65 2.74 2.95 2.96 2.77 2.62 2.40 2.35 2.33 2.27 2.37 2.41 2.18 2.08 2.11 2.11 2.30 2.41 2.35 2.61 2.33 2.46 2.74 2.95 2.75 2.74 2.74 2.81 3.06 3.05 2.64 2.29 2.16 2.25 2.38 2.47 2.48 2.56 2.82 3.05
2.07 2.15 2.16 2.50 2.63 2.65 2.65 2.63 2.70 2.45 2.33 2.33 2.47 2.71 2.66 2.31 1.97 1.82 1.95 2.17 2.31 2.38 2.46 2.39 2.50 2.50 2.55 2.58 2.65 2.63 2.77 3.01 2.86 2.76 2.60 2.39 2.29 2.15 2.24 2.38 2.58 2.80 2.87
1.39 1.55 1.70 2.06 2.31 2.37 2.32 2.32 2.40 2.45 2.49 2.34 2.33 2.44 2.39 2.25 2.04 1.85 1.89 2.13 2.22 2.31 2.36 2.39 2.37 2.30 2.39 2.47 2.52 2.54 2.74 2.79 2.75 2.82 2.64 2.46 2.33 2.06 2.04 2.13 2.32 2.45 2.56